Time,TemperatureF,DewpointF,PressureIn,WindDirection,WindDirectionDegrees,WindSpeedMPH,WindSpeedGustMPH,Humidity,HourlyPrecipIn,Conditions,Clouds,dailyrainin,SoftwareType,DateUTC
2013-07-12 00:01:00,69.2,69.2,30.00,NW,324,0.0,0.0,100,0.00,,,0.00,Wunderground v.1.15,2013-07-12 04:01:00,
2013-07-12 00:06:00,69.1,69.1,30.00,NW,324,0.0,0.0,100,0.00,,,0.00,Wunderground v.1.15,2013-07-12 04:06:00,
2013-07-12 00:11:00,69.0,69.0,30.00,NW,324,0.0,0.0,100,0.00,,,0.00,Wunderground v.1.15,2013-07-12 04:11:00,
2013-07-12 00:16:00,69.0,69.0,30.00,NW,324,0.0,0.0,100,0.00,,,0.00,Wunderground v.1.15,2013-07-12 04:16:00,
2013-07-12 00:21:00,68.9,68.9,30.00,NW,324,0.0,0.0,100,0.00,,,0.00,Wunderground v.1.15,2013-07-12 04:21:00,
2013-07-12 00:26:00,68.9,68.9,29.99,NW,324,0.0,0.0,100,0.00,,,0.00,Wunderground v.1.15,2013-07-12 04:26:00,
2013-07-12 00:31:00,68.9,68.9,30.00,NW,324,0.0,0.0,100,0.00,,,0.00,Wunderground v.1.15,2013-07-12 04:31:00,
2013-07-12 00:36:00,68.8,68.8,29.99,NW,324,0.0,0.0,100,0.00,,,0.00,Wunderground v.1.15,2013-07-12 04:36:00,
2013-07-12 00:42:00,68.8,68.8,29.99,NW,324,0.0,0.0,100,0.00,,,0.00,Wunderground v.1.15,2013-07-12 04:42:00,
2013-07-12 00:47:00,68.7,68.7,29.99,NW,324,0.0,1.0,100,0.00,,,0.00,Wunderground v.1.15,2013-07-12 04:47:00,
2013-07-12 00:52:00,68.6,68.6,29.99,NW,324,0.0,0.0,100,0.00,,,0.00,Wunderground v.1.15,2013-07-12 04:52:00,
2013-07-12 00:57:00,68.4,68.4,29.99,NW,324,0.0,0.0,100,0.00,,,0.00,Wunderground v.1.15,2013-07-12 04:57:00,
2013-07-12 01:02:00,68.4,68.4,29.99,NW,324,0.0,0.0,100,0.00,,,0.00,Wunderground v.1.15,2013-07-12 05:02:00,
2013-07-12 01:07:00,68.4,68.4,29.99,NW,324,0.0,0.0,100,0.00,,,0.00,Wunderground v.1.15,2013-07-12 05:07:00,
2013-07-12 01:12:00,68.3,68.3,29.99,NW,324,0.0,0.0,100,0.00,,,0.00,Wunderground v.1.15,2013-07-12 05:12:00,
2013-07-12 01:17:00,68.3,68.3,29.99,NW,324,0.0,0.0,100,0.00,,,0.00,Wunderground v.1.15,2013-07-12 05:17:00,
2013-07-12 01:22:00,68.3,68.3,29.98,NW,324,0.0,0.0,100,0.00,,,0.00,Wunderground v.1.15,2013-07-12 05:22:00,
2013-07-12 01:27:00,68.2,68.2,29.99,NW,324,0.0,0.0,100,0.00,,,0.00,Wunderground v.1.15,2013-07-12 05:27:00,
2013-07-12 01:32:00,68.2,68.2,29.99,NW,324,0.0,0.0,100,0.00,,,0.00,Wunderground v.1.15,2013-07-12 05:32:00,
2013-07-12 01:37:00,68.1,68.1,29.99,NW,324,0.0,0.0,100,0.00,,,0.00,Wunderground v.1.15,2013-07-12 05:37:00,
2013-07-12 01:42:00,68.0,68.0,29.99,NW,324,0.0,0.0,100,0.00,,,0.00,Wunderground v.1.15,2013-07-12 05:42:00,
2013-07-12 01:47:00,67.9,67.9,29.99,NW,324,0.0,0.0,100,0.00,,,0.00,Wunderground v.1.15,2013-07-12 05:47:00,
2013-07-12 01:52:00,67.7,67.7,29.99,NW,324,0.0,0.0,100,0.00,,,0.00,Wunderground v.1.15,2013-07-12 05:52:00,
2013-07-12 01:57:00,67.7,67.7,29.99,NW,324,0.0,0.0,100,0.00,,,0.00,Wunderground v.1.15,2013-07-12 05:57:00,
2013-07-12 02:02:00,67.6,67.6,29.99,NW,324,0.0,0.0,100,0.00,,,0.00,Wunderground v.1.15,2013-07-12 06:02:00,
2013-07-12 02:07:00,67.5,67.5,29.99,NW,324,0.0,0.0,100,0.00,,,0.00,Wunderground v.1.15,2013-07-12 06:07:00,
2013-07-12 02:12:00,67.5,67.5,29.99,NW,324,0.0,0.0,100,0.00,,,0.00,Wunderground v.1.15,2013-07-12 06:12:00,
2013-07-12 02:17:00,67.4,67.4,29.99,NW,324,0.0,0.0,100,0.00,,,0.00,Wunderground v.1.15,2013-07-12 06:17:00,
2013-07-12 02:22:00,67.3,67.3,29.99,NW,324,0.0,0.0,100,0.00,,,0.00,Wunderground v.1.15,2013-07-12 06:22:00,
2013-07-12 02:27:00,67.2,67.2,29.99,NW,324,0.0,0.0,100,0.00,,,0.00,Wunderground v.1.15,2013-07-12 06:27:00,
2013-07-12 02:32:00,67.1,67.1,29.99,NW,324,0.0,0.0,100,0.00,,,0.00,Wunderground v.1.15,2013-07-12 06:32:00,
2013-07-12 02:37:00,67.0,67.0,29.99,NW,324,0.0,0.0,100,0.00,,,0.00,Wunderground v.1.15,2013-07-12 06:37:00,
2013-07-12 02:42:00,66.9,66.9,29.99,NW,324,0.0,0.0,100,0.00,,,0.00,Wunderground v.1.15,2013-07-12 06:42:00,
2013-07-12 02:47:00,66.9,66.9,29.99,NW,324,0.0,0.0,100,0.00,,,0.00,Wunderground v.1.15,2013-07-12 06:47:00,
2013-07-12 02:52:00,66.9,66.9,29.99,NW,324,0.0,0.0,100,0.00,,,0.00,Wunderground v.1.15,2013-07-12 06:52:00,
2013-07-12 02:57:00,66.9,66.9,29.99,NW,324,0.0,0.0,100,0.00,,,0.00,Wunderground v.1.15,2013-07-12 06:57:00,
2013-07-12 03:02:00,66.9,66.9,29.99,NW,324,0.0,0.0,100,0.00,,,0.00,Wunderground v.1.15,2013-07-12 07:02:00,
2013-07-12 03:07:00,66.9,66.9,29.99,NW,324,0.0,0.0,100,0.00,,,0.00,Wunderground v.1.15,2013-07-12 07:07:00,
2013-07-12 03:12:00,66.8,66.8,29.99,NW,324,0.0,0.0,100,0.00,,,0.00,Wunderground v.1.15,2013-07-12 07:12:00,
2013-07-12 03:17:00,66.8,66.8,29.99,NW,324,0.0,0.0,100,0.00,,,0.00,Wunderground v.1.15,2013-07-12 07:17:00,
2013-07-12 03:22:00,66.8,66.8,29.99,NW,324,0.0,0.0,100,0.00,,,0.00,Wunderground v.1.15,2013-07-12 07:22:00,
2013-07-12 03:27:00,66.9,66.9,29.99,NW,324,0.0,0.0,100,0.00,,,0.00,Wunderground v.1.15,2013-07-12 07:27:00,
2013-07-12 03:32:00,67.0,67.0,29.99,NW,324,0.0,0.0,100,0.00,,,0.00,Wunderground v.1.15,2013-07-12 07:32:00,
2013-07-12 03:37:00,67.0,67.0,29.99,NW,324,0.0,0.0,100,0.00,,,0.00,Wunderground v.1.15,2013-07-12 07:37:00,
2013-07-12 03:42:00,67.0,67.0,29.99,NW,324,0.0,0.0,100,0.00,,,0.00,Wunderground v.1.15,2013-07-12 07:42:00,
2013-07-12 03:47:00,67.0,67.0,29.99,NW,324,0.0,0.0,100,0.00,,,0.00,Wunderground v.1.15,2013-07-12 07:47:00,
2013-07-12 03:52:00,67.0,67.0,29.99,NW,324,0.0,0.0,100,0.00,,,0.00,Wunderground v.1.15,2013-07-12 07:52:00,
2013-07-12 03:57:00,66.9,66.9,29.99,NW,324,0.0,0.0,100,0.00,,,0.00,Wunderground v.1.15,2013-07-12 07:57:00,
2013-07-12 04:02:00,66.8,66.8,29.98,NW,324,0.0,0.0,100,0.00,,,0.00,Wunderground v.1.15,2013-07-12 08:02:00,
2013-07-12 04:07:00,66.7,66.7,29.99,NW,324,0.0,0.0,100,0.00,,,0.00,Wunderground v.1.15,2013-07-12 08:07:00,
2013-07-12 04:12:00,66.6,66.6,29.99,NW,324,0.0,0.0,100,0.00,,,0.00,Wunderground v.1.15,2013-07-12 08:12:00,
2013-07-12 04:17:00,66.5,66.5,29.98,NW,324,0.0,0.0,100,0.00,,,0.00,Wunderground v.1.15,2013-07-12 08:17:00,
2013-07-12 04:22:00,66.3,66.3,29.98,NW,324,0.0,0.0,100,0.00,,,0.00,Wunderground v.1.15,2013-07-12 08:22:00,
2013-07-12 04:27:00,66.3,66.3,29.98,NW,324,0.0,0.0,100,0.00,,,0.00,Wunderground v.1.15,2013-07-12 08:27:00,
2013-07-12 04:32:00,66.2,66.2,29.99,NW,324,0.0,0.0,100,0.00,,,0.00,Wunderground v.1.15,2013-07-12 08:32:00,
2013-07-12 04:37:00,66.1,66.1,29.98,NW,324,0.0,0.0,100,0.00,,,0.00,Wunderground v.1.15,2013-07-12 08:37:00,
2013-07-12 04:42:00,66.1,66.1,29.98,NW,324,0.0,0.0,100,0.00,,,0.00,Wunderground v.1.15,2013-07-12 08:42:00,
2013-07-12 04:47:00,66.1,66.1,29.97,NW,324,0.0,0.0,100,0.00,,,0.00,Wunderground v.1.15,2013-07-12 08:47:00,
2013-07-12 04:52:00,66.0,66.0,29.98,NW,324,0.0,0.0,100,0.00,,,0.00,Wunderground v.1.15,2013-07-12 08:52:00,
2013-07-12 04:57:00,66.0,66.0,29.98,NW,324,0.0,0.0,100,0.00,,,0.00,Wunderground v.1.15,2013-07-12 08:57:00,
2013-07-12 05:02:00,66.0,66.0,29.98,NW,324,0.0,0.0,100,0.00,,,0.00,Wunderground v.1.15,2013-07-12 09:02:00,
2013-07-12 05:07:00,65.9,65.9,29.98,NW,324,0.0,0.0,100,0.00,,,0.00,Wunderground v.1.15,2013-07-12 09:07:00,
2013-07-12 05:12:00,65.9,65.9,29.99,NW,324,0.0,0.0,100,0.00,,,0.00,Wunderground v.1.15,2013-07-12 09:12:00,
2013-07-12 05:17:00,65.8,65.8,29.99,NW,324,0.0,0.0,100,0.00,,,0.00,Wunderground v.1.15,2013-07-12 09:17:00,
2013-07-12 05:22:00,65.8,65.8,29.98,NW,324,0.0,0.0,100,0.00,,,0.00,Wunderground v.1.15,2013-07-12 09:22:00,
2013-07-12 05:27:00,65.7,65.7,29.98,NW,324,0.0,0.0,100,0.00,,,0.00,Wunderground v.1.15,2013-07-12 09:27:00,
2013-07-12 05:32:00,65.7,65.7,29.98,NW,324,0.0,0.0,100,0.00,,,0.00,Wunderground v.1.15,2013-07-12 09:32:00,
2013-07-12 05:37:00,65.7,65.7,29.98,NW,324,0.0,0.0,100,0.00,,,0.00,Wunderground v.1.15,2013-07-12 09:37:00,
2013-07-12 05:42:00,65.7,65.7,29.98,NW,324,0.0,0.0,100,0.00,,,0.00,Wunderground v.1.15,2013-07-12 09:42:00,
2013-07-12 05:47:00,65.7,65.7,29.98,NW,324,0.0,0.0,100,0.00,,,0.00,Wunderground v.1.15,2013-07-12 09:47:00,
2013-07-12 05:52:00,65.6,65.6,29.99,NW,324,0.0,0.0,100,0.00,,,0.00,Wunderground v.1.15,2013-07-12 09:52:00,
2013-07-12 05:57:00,65.6,65.6,29.99,NW,324,0.0,0.0,100,0.00,,,0.00,Wunderground v.1.15,2013-07-12 09:57:00,
2013-07-12 06:02:00,65.5,65.5,29.99,NW,324,0.0,0.0,100,0.00,,,0.00,Wunderground v.1.15,2013-07-12 10:02:00,
2013-07-12 06:07:00,65.5,65.5,29.99,NW,324,0.0,0.0,100,0.00,,,0.00,Wunderground v.1.15,2013-07-12 10:07:00,
2013-07-12 06:12:00,65.5,65.5,29.99,NW,324,0.0,0.0,100,0.00,,,0.00,Wunderground v.1.15,2013-07-12 10:12:00,
2013-07-12 06:17:00,65.6,65.6,29.99,NW,324,0.0,0.0,100,0.00,,,0.00,Wunderground v.1.15,2013-07-12 10:17:00,
2013-07-12 06:22:00,65.7,65.7,29.99,NW,324,0.0,0.0,100,0.00,,,0.00,Wunderground v.1.15,2013-07-12 10:22:00,
2013-07-12 06:27:00,65.8,65.8,29.99,NW,324,0.0,1.0,100,0.00,,,0.00,Wunderground v.1.15,2013-07-12 10:27:00,
2013-07-12 06:32:00,65.8,65.8,29.99,NW,324,0.0,0.0,100,0.00,,,0.00,Wunderground v.1.15,2013-07-12 10:32:00,
2013-07-12 06:37:00,65.7,65.7,29.99,NW,324,0.0,0.0,100,0.00,,,0.00,Wunderground v.1.15,2013-07-12 10:37:00,
2013-07-12 06:42:00,65.6,65.6,29.99,NW,324,0.0,0.0,100,0.00,,,0.00,Wunderground v.1.15,2013-07-12 10:42:00,
2013-07-12 06:47:00,65.6,65.6,29.99,NW,324,0.0,0.0,100,0.00,,,0.00,Wunderground v.1.15,2013-07-12 10:47:00,
2013-07-12 06:52:00,65.7,65.7,29.99,NW,324,0.0,0.0,100,0.00,,,0.00,Wunderground v.1.15,2013-07-12 10:52:00,
2013-07-12 06:57:00,65.8,65.8,30.00,NW,324,0.0,0.0,100,0.00,,,0.00,Wunderground v.1.15,2013-07-12 10:57:00,
2013-07-12 07:02:00,65.9,65.9,30.00,NW,324,0.0,0.0,100,0.00,,,0.00,Wunderground v.1.15,2013-07-12 11:02:00,
2013-07-12 07:07:00,66.1,66.1,30.00,NW,324,0.0,0.0,100,0.00,,,0.00,Wunderground v.1.15,2013-07-12 11:07:00,
2013-07-12 07:12:00,66.2,66.2,30.00,NW,324,0.0,0.0,100,0.00,,,0.00,Wunderground v.1.15,2013-07-12 11:12:00,
2013-07-12 07:17:00,66.3,66.3,30.00,NW,324,0.0,0.0,100,0.00,,,0.00,Wunderground v.1.15,2013-07-12 11:17:00,
2013-07-12 07:22:00,66.4,66.4,30.00,NW,324,0.0,0.0,100,0.00,,,0.00,Wunderground v.1.15,2013-07-12 11:22:00,
2013-07-12 07:27:00,66.5,66.5,30.00,NW,324,0.0,0.0,100,0.00,,,0.00,Wunderground v.1.15,2013-07-12 11:27:00,
2013-07-12 07:32:00,66.5,66.5,30.00,NW,323,0.0,0.0,100,0.00,,,0.00,Wunderground v.1.15,2013-07-12 11:32:00,
2013-07-12 07:37:00,66.6,66.6,30.00,WSW,240,0.0,0.0,100,0.00,,,0.00,Wunderground v.1.15,2013-07-12 11:37:00,
2013-07-12 07:42:00,66.6,66.6,30.00,WSW,240,0.0,0.0,100,0.00,,,0.00,Wunderground v.1.15,2013-07-12 11:42:00,
2013-07-12 07:47:00,66.7,66.7,30.00,WSW,240,0.0,0.0,100,0.00,,,0.00,Wunderground v.1.15,2013-07-12 11:47:00,
2013-07-12 07:52:00,66.7,66.7,30.00,WSW,240,0.0,0.0,100,0.00,,,0.00,Wunderground v.1.15,2013-07-12 11:52:00,
2013-07-12 07:57:00,66.7,66.7,30.00,WSW,240,0.0,0.0,100,0.00,,,0.00,Wunderground v.1.15,2013-07-12 11:57:00,
2013-07-12 08:02:00,66.7,66.7,30.01,WSW,240,0.0,0.0,100,0.00,,,0.00,Wunderground v.1.15,2013-07-12 12:02:00,
2013-07-12 08:07:00,66.8,66.8,30.01,WSW,240,0.0,0.0,100,0.00,,,0.00,Wunderground v.1.15,2013-07-12 12:07:00,
2013-07-12 08:12:00,66.9,66.9,30.01,WSW,240,0.0,0.0,100,0.00,,,0.00,Wunderground v.1.15,2013-07-12 12:12:00,
2013-07-12 08:17:00,67.1,67.1,30.02,WSW,240,0.0,0.0,100,0.00,,,0.00,Wunderground v.1.15,2013-07-12 12:17:00,
2013-07-12 08:22:00,67.4,67.4,30.02,WSW,240,0.0,1.0,100,0.00,,,0.00,Wunderground v.1.15,2013-07-12 12:22:00,
2013-07-12 08:27:00,67.5,67.5,30.02,WSW,242,0.0,1.0,100,0.00,,,0.00,Wunderground v.1.15,2013-07-12 12:27:00,
2013-07-12 08:32:00,67.6,67.6,30.02,WSW,242,0.0,0.0,100,0.00,,,0.00,Wunderground v.1.15,2013-07-12 12:32:00,
2013-07-12 08:37:00,67.7,67.7,30.02,WSW,242,0.0,1.0,100,0.00,,,0.00,Wunderground v.1.15,2013-07-12 12:37:00,
2013-07-12 08:42:00,67.7,67.7,30.02,WSW,242,0.0,0.0,100,0.00,,,0.00,Wunderground v.1.15,2013-07-12 12:42:00,
2013-07-12 08:47:00,67.8,67.8,30.02,WSW,242,0.0,0.0,100,0.00,,,0.00,Wunderground v.1.15,2013-07-12 12:47:00,
2013-07-12 08:52:00,67.9,67.9,30.02,WSW,242,0.0,1.0,100,0.00,,,0.00,Wunderground v.1.15,2013-07-12 12:52:00,
2013-07-12 08:57:00,67.9,67.9,30.02,WSW,242,0.0,2.0,100,0.00,,,0.00,Wunderground v.1.15,2013-07-12 12:57:00,
2013-07-12 09:02:00,67.9,67.9,30.02,WSW,242,1.0,1.0,100,0.00,,,0.00,Wunderground v.1.15,2013-07-12 13:02:00,
2013-07-12 09:07:00,67.9,67.9,30.02,WSW,242,1.0,1.0,100,0.00,,,0.00,Wunderground v.1.15,2013-07-12 13:07:00,
2013-07-12 09:12:00,67.9,67.9,30.02,WSW,242,0.0,0.0,100,0.00,,,0.00,Wunderground v.1.15,2013-07-12 13:12:00,
2013-07-12 09:17:00,68.0,68.0,30.02,WSW,242,0.0,0.0,100,0.00,,,0.00,Wunderground v.1.15,2013-07-12 13:17:00,
2013-07-12 09:22:00,68.2,68.2,30.02,WSW,242,0.0,1.0,100,0.00,,,0.00,Wunderground v.1.15,2013-07-12 13:22:00,
2013-07-12 09:27:00,68.3,68.3,30.02,WSW,242,0.0,1.0,100,0.00,,,0.00,Wunderground v.1.15,2013-07-12 13:27:00,
2013-07-12 09:32:00,68.4,68.4,30.02,WSW,242,0.0,1.0,100,0.00,,,0.00,Wunderground v.1.15,2013-07-12 13:32:00,
2013-07-12 09:37:00,68.5,68.5,30.03,North,5,0.0,1.0,100,0.00,,,0.00,Wunderground v.1.15,2013-07-12 13:37:00,
2013-07-12 09:42:00,68.8,68.8,30.03,North,5,0.0,1.0,100,0.00,,,0.00,Wunderground v.1.15,2013-07-12 13:42:00,
2013-07-12 09:47:00,69.2,69.2,30.02,North,5,0.0,1.0,100,0.00,,,0.00,Wunderground v.1.15,2013-07-12 13:47:00,
2013-07-12 09:52:00,69.6,69.6,30.02,North,5,1.0,1.0,100,0.00,,,0.00,Wunderground v.1.15,2013-07-12 13:52:00,
2013-07-12 09:57:00,69.9,69.6,30.02,North,5,0.0,1.0,99,0.00,,,0.00,Wunderground v.1.15,2013-07-12 13:57:00,
2013-07-12 10:02:00,70.2,70.2,30.02,North,5,0.0,1.0,100,0.00,,,0.00,Wunderground v.1.15,2013-07-12 14:02:00,
2013-07-12 10:07:00,70.5,69.9,30.03,North,5,0.0,2.0,98,0.00,,,0.00,Wunderground v.1.15,2013-07-12 14:07:00,
2013-07-12 10:12:00,70.8,70.2,30.02,North,5,0.0,0.0,98,0.00,,,0.00,Wunderground v.1.15,2013-07-12 14:12:00,
2013-07-12 10:17:00,71.1,69.9,30.02,North,360,0.0,2.0,96,0.00,,,0.00,Wunderground v.1.15,2013-07-12 14:17:00,
2013-07-12 10:22:00,71.3,70.4,30.02,North,360,0.0,1.0,97,0.00,,,0.00,Wunderground v.1.15,2013-07-12 14:22:00,
2013-07-12 10:27:00,71.8,70.9,30.02,North,360,0.0,2.0,97,0.00,,,0.00,Wunderground v.1.15,2013-07-12 14:27:00,
2013-07-12 10:32:00,72.2,70.7,30.02,North,5,7.0,7.0,95,0.00,,,0.00,Wunderground v.1.15,2013-07-12 14:32:00,
2013-07-12 10:37:00,72.6,70.1,30.02,North,5,0.0,7.0,92,0.00,,,0.00,Wunderground v.1.15,2013-07-12 14:37:00,
2013-07-12 10:42:00,73.0,70.2,30.02,North,355,0.0,3.0,91,0.00,,,0.00,Wunderground v.1.15,2013-07-12 14:42:00,
2013-07-12 10:47:00,73.5,71.0,30.02,North,355,0.0,3.0,92,0.00,,,0.00,Wunderground v.1.15,2013-07-12 14:47:00,
2013-07-12 10:52:00,73.9,71.1,30.02,North,355,0.0,2.0,91,0.00,,,0.00,Wunderground v.1.15,2013-07-12 14:52:00,
2013-07-12 10:57:00,74.2,70.7,30.02,North,360,0.0,4.0,89,0.00,,,0.00,Wunderground v.1.15,2013-07-12 14:57:00,
2013-07-12 11:02:00,74.5,71.4,30.02,NNE,21,3.0,3.0,90,0.00,,,0.00,Wunderground v.1.15,2013-07-12 15:02:00,
2013-07-12 11:07:00,74.9,71.1,30.02,NNW,348,0.0,4.0,88,0.00,,,0.00,Wunderground v.1.15,2013-07-12 15:07:00,
2013-07-12 11:12:00,75.3,72.2,30.02,North,355,0.0,1.0,90,0.00,,,0.00,Wunderground v.1.15,2013-07-12 15:12:00,
2013-07-12 11:17:00,75.4,71.9,30.02,North,355,1.0,2.0,89,0.00,,,0.00,Wunderground v.1.15,2013-07-12 15:17:00,
2013-07-12 11:22:00,75.3,71.8,30.02,North,355,0.0,2.0,89,0.00,,,0.00,Wunderground v.1.15,2013-07-12 15:22:00,
2013-07-12 11:27:00,75.2,72.4,30.02,NNW,346,1.0,2.0,91,0.00,,,0.00,Wunderground v.1.15,2013-07-12 15:27:00,
2013-07-12 11:32:00,75.2,71.7,30.01,NNW,346,0.0,1.0,89,0.00,,,0.00,Wunderground v.1.15,2013-07-12 15:32:00,
2013-07-12 11:37:00,75.3,71.2,30.01,WSW,246,0.0,3.0,87,0.00,,,0.00,Wunderground v.1.15,2013-07-12 15:37:00,
2013-07-12 11:42:00,75.6,71.8,30.02,NE,38,0.0,2.0,88,0.00,,,0.00,Wunderground v.1.15,2013-07-12 15:42:00,
2013-07-12 11:47:00,76.0,71.5,30.02,NE,38,0.0,2.0,86,0.00,,,0.00,Wunderground v.1.15,2013-07-12 15:47:00,
2013-07-12 11:52:00,76.0,71.5,30.02,NE,38,1.0,1.0,86,0.00,,,0.00,Wunderground v.1.15,2013-07-12 15:52:00,
2013-07-12 11:57:00,76.2,72.4,30.01,NE,38,0.0,1.0,88,0.00,,,0.00,Wunderground v.1.15,2013-07-12 15:57:00,
2013-07-12 12:02:00,76.5,72.3,30.01,NE,38,1.0,2.0,87,0.00,,,0.00,Wunderground v.1.15,2013-07-12 16:02:00,
2013-07-12 12:07:00,76.8,71.6,30.01,NE,38,0.0,2.0,84,0.00,,,0.01,Wunderground v.1.15,2013-07-12 16:07:00,
2013-07-12 12:12:00,77.1,71.9,30.01,NE,38,0.0,1.0,84,0.00,,,0.01,Wunderground v.1.15,2013-07-12 16:12:00,
2013-07-12 12:17:00,77.4,71.8,30.01,NE,38,1.0,2.0,83,0.00,,,0.01,Wunderground v.1.15,2013-07-12 16:17:00,
2013-07-12 12:22:00,77.6,72.7,30.01,NE,38,1.0,2.0,85,0.00,,,0.01,Wunderground v.1.15,2013-07-12 16:22:00,
2013-07-12 12:27:00,77.6,72.0,30.01,NE,38,1.0,2.0,83,0.00,,,0.01,Wunderground v.1.15,2013-07-12 16:27:00,
2013-07-12 12:32:00,77.5,71.6,30.01,NE,38,1.0,3.0,82,0.00,,,0.01,Wunderground v.1.15,2013-07-12 16:32:00,
2013-07-12 12:37:00,77.5,70.8,30.00,NE,38,0.0,3.0,80,0.00,,,0.01,Wunderground v.1.15,2013-07-12 16:37:00,
2013-07-12 12:42:00,77.7,71.8,30.00,NE,38,1.0,1.0,82,0.00,,,0.01,Wunderground v.1.15,2013-07-12 16:42:00,
2013-07-12 12:47:00,78.0,72.1,30.00,NE,38,0.0,1.0,82,0.00,,,0.01,Wunderground v.1.15,2013-07-12 16:47:00,
2013-07-12 12:52:00,78.3,71.6,30.00,NE,38,0.0,1.0,80,0.00,,,0.01,Wunderground v.1.15,2013-07-12 16:52:00,
2013-07-12 12:58:00,78.7,72.7,30.00,NE,38,0.0,1.0,82,0.00,,,0.01,Wunderground v.1.15,2013-07-12 16:58:00,
2013-07-12 13:03:00,79.2,72.1,30.00,NE,37,0.0,1.0,79,0.00,,,0.01,Wunderground v.1.15,2013-07-12 17:03:00,
2013-07-12 13:08:00,79.5,73.2,30.00,NE,38,0.0,1.0,81,0.00,,,0.01,Wunderground v.1.15,2013-07-12 17:08:00,
2013-07-12 13:13:00,79.8,72.7,30.00,NE,38,0.0,1.0,79,0.00,,,0.01,Wunderground v.1.15,2013-07-12 17:13:00,
2013-07-12 13:18:00,80.0,72.5,29.99,NE,38,0.0,1.0,78,0.00,,,0.01,Wunderground v.1.15,2013-07-12 17:18:00,
2013-07-12 13:23:00,79.8,71.2,29.99,NE,38,0.0,2.0,75,0.00,,,0.01,Wunderground v.1.15,2013-07-12 17:23:00,
2013-07-12 13:29:00,79.6,71.8,29.99,NE,38,0.0,2.0,77,0.00,,,0.01,Wunderground v.1.15,2013-07-12 17:29:00,
2013-07-12 13:35:00,79.2,71.7,29.98,NE,38,0.0,0.0,78,0.00,,,0.01,Wunderground v.1.15,2013-07-12 17:35:00,
2013-07-12 13:40:00,79.0,71.2,29.98,NE,38,0.0,0.0,77,0.00,,,0.01,Wunderground v.1.15,2013-07-12 17:40:00,
2013-07-12 13:45:00,79.0,72.3,29.98,NE,38,0.0,1.0,80,0.00,,,0.01,Wunderground v.1.15,2013-07-12 17:45:00,
2013-07-12 13:50:00,79.1,70.9,29.99,NE,38,0.0,0.0,76,0.00,,,0.01,Wunderground v.1.15,2013-07-12 17:50:00,
2013-07-12 13:55:00,78.8,70.6,29.98,NE,38,0.0,2.0,76,0.00,,,0.01,Wunderground v.1.15,2013-07-12 17:55:00,
2013-07-12 14:01:00,78.5,71.1,29.99,NE,38,0.0,0.0,78,0.00,,,0.01,Wunderground v.1.15,2013-07-12 18:01:00,
2013-07-12 14:06:00,78.2,71.2,29.99,NE,38,0.0,0.0,79,0.00,,,0.01,Wunderground v.1.15,2013-07-12 18:06:00,
2013-07-12 14:11:00,77.8,71.9,29.99,NE,38,0.0,0.0,82,0.00,,,0.01,Wunderground v.1.15,2013-07-12 18:11:00,
2013-07-12 14:16:00,77.6,72.0,29.99,NE,38,0.0,0.0,83,0.00,,,0.01,Wunderground v.1.15,2013-07-12 18:16:00,
2013-07-12 14:21:00,77.4,71.8,29.99,NE,38,0.0,0.0,83,0.00,,,0.01,Wunderground v.1.15,2013-07-12 18:21:00,
2013-07-12 14:26:00,77.0,70.7,29.99,NE,38,0.0,0.0,81,0.00,,,0.01,Wunderground v.1.15,2013-07-12 18:26:00,
2013-07-12 14:31:00,76.7,70.8,29.99,NE,38,0.0,0.0,82,0.00,,,0.01,Wunderground v.1.15,2013-07-12 18:31:00,
2013-07-12 14:36:00,76.5,71.3,29.99,NE,38,0.0,0.0,84,0.00,,,0.01,Wunderground v.1.15,2013-07-12 18:36:00,
2013-07-12 14:42:00,76.4,71.9,29.99,NE,38,0.0,0.0,86,0.00,,,0.01,Wunderground v.1.15,2013-07-12 18:42:00,
2013-07-12 14:48:00,76.3,71.8,29.99,NE,38,0.0,0.0,86,0.00,,,0.01,Wunderground v.1.15,2013-07-12 18:48:00,
2013-07-12 14:53:00,76.1,71.3,29.99,NE,38,0.0,0.0,85,0.00,,,0.01,Wunderground v.1.15,2013-07-12 18:53:00,
2013-07-12 14:58:00,76.0,71.2,30.00,NE,38,0.0,0.0,85,0.00,,,0.01,Wunderground v.1.15,2013-07-12 18:58:00,
2013-07-12 15:03:00,75.9,71.1,29.99,NE,38,0.0,0.0,85,0.00,,,0.01,Wunderground v.1.15,2013-07-12 19:03:00,
2013-07-12 15:09:00,76.1,71.6,29.99,NE,38,0.0,1.0,86,0.00,,,0.01,Wunderground v.1.15,2013-07-12 19:09:00,
2013-07-12 15:14:00,76.3,71.8,29.99,NE,38,0.0,0.0,86,0.00,,,0.01,Wunderground v.1.15,2013-07-12 19:14:00,
2013-07-12 15:19:00,76.5,71.7,29.99,North,360,0.0,1.0,85,0.00,,,0.01,Wunderground v.1.15,2013-07-12 19:19:00,
2013-07-12 15:25:00,76.7,71.8,29.99,North,360,0.0,2.0,85,0.00,,,0.01,Wunderground v.1.15,2013-07-12 19:25:00,
2013-07-12 15:30:00,76.9,72.4,29.99,North,360,0.0,1.0,86,0.00,,,0.01,Wunderground v.1.15,2013-07-12 19:30:00,
2013-07-12 15:35:00,77.1,72.6,29.99,North,360,0.0,1.0,86,0.00,,,0.01,Wunderground v.1.15,2013-07-12 19:35:00,
2013-07-12 15:41:00,77.0,71.4,29.99,SSE,165,0.0,2.0,83,0.00,,,0.01,Wunderground v.1.15,2013-07-12 19:41:00,
2013-07-12 15:46:00,76.8,70.2,29.99,SSE,151,0.0,3.0,80,0.00,,,0.01,Wunderground v.1.15,2013-07-12 19:46:00,
2013-07-12 15:51:00,76.5,69.5,29.99,SSE,167,0.0,2.0,79,0.00,,,0.01,Wunderground v.1.15,2013-07-12 19:51:00,
2013-07-12 15:57:00,76.4,70.5,29.99,SSE,167,0.0,2.0,82,0.00,,,0.01,Wunderground v.1.15,2013-07-12 19:57:00,
2013-07-12 16:02:00,76.4,69.8,29.99,SSE,167,0.0,0.0,80,0.00,,,0.01,Wunderground v.1.15,2013-07-12 20:02:00,
2013-07-12 16:07:00,76.2,68.8,29.99,South,170,0.0,2.0,78,0.00,,,0.01,Wunderground v.1.15,2013-07-12 20:07:00,
2013-07-12 16:12:00,76.1,69.5,29.98,South,170,0.0,1.0,80,0.00,,,0.01,Wunderground v.1.15,2013-07-12 20:12:00,
2013-07-12 16:18:00,76.0,69.7,29.98,South,170,0.0,1.0,81,0.00,,,0.01,Wunderground v.1.15,2013-07-12 20:18:00,
2013-07-12 16:23:00,75.9,70.4,29.97,South,170,0.0,0.0,83,0.00,,,0.01,Wunderground v.1.15,2013-07-12 20:23:00,
2013-07-12 16:28:00,75.8,70.3,29.97,South,170,0.0,0.0,83,0.00,,,0.01,Wunderground v.1.15,2013-07-12 20:28:00,
2013-07-12 16:33:00,75.8,70.3,29.97,South,170,0.0,0.0,83,0.00,,,0.01,Wunderground v.1.15,2013-07-12 20:33:00,
2013-07-12 16:38:00,75.8,70.3,29.96,South,170,0.0,1.0,83,0.00,,,0.01,Wunderground v.1.15,2013-07-12 20:38:00,
2013-07-12 16:43:00,75.9,70.7,29.97,South,170,1.0,1.0,84,0.00,,,0.01,Wunderground v.1.15,2013-07-12 20:43:00,
2013-07-12 16:49:00,76.0,71.2,29.97,South,170,0.0,1.0,85,0.00,,,0.01,Wunderground v.1.15,2013-07-12 20:49:00,
2013-07-12 16:54:00,76.2,71.7,29.98,South,170,0.0,1.0,86,0.00,,,0.01,Wunderground v.1.15,2013-07-12 20:54:00,
2013-07-12 16:59:00,76.2,71.7,29.98,South,170,0.0,2.0,86,0.00,,,0.01,Wunderground v.1.15,2013-07-12 20:59:00,
2013-07-12 17:04:00,76.2,72.0,29.99,South,170,0.0,1.0,87,0.00,,,0.01,Wunderground v.1.15,2013-07-12 21:04:00,
2013-07-12 17:09:00,76.0,72.5,29.99,South,170,0.0,0.0,89,0.00,,,0.01,Wunderground v.1.15,2013-07-12 21:09:00,
2013-07-12 17:14:00,75.7,72.6,29.98,South,170,0.0,0.0,90,0.00,,,0.01,Wunderground v.1.15,2013-07-12 21:14:00,
2013-07-12 17:20:00,75.5,72.7,29.98,South,170,0.0,0.0,91,0.00,,,0.01,Wunderground v.1.15,2013-07-12 21:20:00,
2013-07-12 17:25:00,75.2,70.7,29.99,South,170,0.0,0.0,86,0.00,,,0.01,Wunderground v.1.15,2013-07-12 21:25:00,
2013-07-12 17:30:00,74.8,69.3,29.98,North,355,0.0,6.0,83,0.00,,,0.02,Wunderground v.1.15,2013-07-12 21:30:00,
2013-07-12 17:35:00,74.2,68.0,29.99,North,5,0.0,6.0,81,0.00,,,0.02,Wunderground v.1.15,2013-07-12 21:35:00,
2013-07-12 17:40:00,73.5,67.7,30.00,NNW,347,0.0,1.0,82,0.00,,,0.02,Wunderground v.1.15,2013-07-12 21:40:00,
2013-07-12 17:45:00,73.0,67.2,30.00,NNW,340,1.0,2.0,82,0.00,,,0.02,Wunderground v.1.15,2013-07-12 21:45:00,
2013-07-12 17:50:00,72.6,67.1,30.01,North,9,0.0,0.0,83,0.00,,,0.02,Wunderground v.1.15,2013-07-12 21:50:00,
2013-07-12 17:55:00,72.3,67.9,30.01,ESE,105,4.0,4.0,86,0.00,,,0.02,Wunderground v.1.15,2013-07-12 21:55:00,
2013-07-12 18:01:00,71.1,66.7,30.01,SSE,168,0.0,2.0,86,0.00,,,0.02,Wunderground v.1.15,2013-07-12 22:01:00,
2013-07-12 18:06:00,70.3,66.6,30.02,SSE,163,3.0,7.0,88,0.00,,,0.02,Wunderground v.1.15,2013-07-12 22:06:00,
2013-07-12 18:11:00,69.6,65.9,30.02,South,173,0.0,2.0,88,0.00,,,0.02,Wunderground v.1.15,2013-07-12 22:11:00,
2013-07-12 18:16:00,69.3,66.2,30.02,South,173,0.0,2.0,90,0.00,,,0.02,Wunderground v.1.15,2013-07-12 22:16:00,
2013-07-12 18:21:00,69.1,65.4,30.02,South,173,0.0,1.0,88,0.00,,,0.02,Wunderground v.1.15,2013-07-12 22:21:00,
2013-07-12 18:26:00,69.0,65.3,30.02,South,173,0.0,1.0,88,0.00,,,0.02,Wunderground v.1.15,2013-07-12 22:26:00,
2013-07-12 18:32:00,69.0,65.0,30.01,North,5,0.0,0.0,87,0.00,,,0.02,Wunderground v.1.15,2013-07-12 22:32:00,
2013-07-12 18:37:00,69.0,65.3,30.01,North,5,0.0,0.0,88,0.00,,,0.02,Wunderground v.1.15,2013-07-12 22:37:00,
2013-07-12 18:42:00,69.0,65.3,30.02,North,5,0.0,0.0,88,0.00,,,0.02,Wunderground v.1.15,2013-07-12 22:42:00,
2013-07-12 18:48:00,69.0,65.9,30.02,North,5,0.0,0.0,90,0.00,,,0.02,Wunderground v.1.15,2013-07-12 22:48:00,
2013-07-12 18:53:00,68.9,66.5,30.03,North,5,0.0,0.0,92,0.00,,,0.02,Wunderground v.1.15,2013-07-12 22:53:00,
2013-07-12 18:58:00,68.7,66.3,30.03,North,5,0.0,1.0,92,0.00,,,0.02,Wunderground v.1.15,2013-07-12 22:58:00,
2013-07-12 19:03:00,68.5,66.1,30.03,North,5,0.0,0.0,92,0.00,,,0.02,Wunderground v.1.15,2013-07-12 23:03:00,
2013-07-12 19:08:00,68.3,66.5,30.03,North,5,0.0,0.0,94,0.00,,,0.02,Wunderground v.1.15,2013-07-12 23:08:00,
2013-07-12 19:13:00,68.2,66.4,30.03,North,5,0.0,0.0,94,0.00,,,0.02,Wunderground v.1.15,2013-07-12 23:13:00,
2013-07-12 19:18:00,68.0,66.2,30.03,North,5,0.0,0.0,94,0.00,,,0.02,Wunderground v.1.15,2013-07-12 23:18:00,
2013-07-12 19:24:00,67.9,66.4,30.03,North,5,0.0,0.0,95,0.00,,,0.02,Wunderground v.1.15,2013-07-12 23:24:00,
2013-07-12 19:29:00,67.8,66.6,30.04,North,5,0.0,0.0,96,0.00,,,0.02,Wunderground v.1.15,2013-07-12 23:29:00,
2013-07-12 19:34:00,67.8,66.6,30.04,North,5,0.0,0.0,96,0.00,,,0.02,Wunderground v.1.15,2013-07-12 23:34:00,
2013-07-12 19:39:00,67.8,66.6,30.04,North,355,0.0,1.0,96,0.00,,,0.02,Wunderground v.1.15,2013-07-12 23:39:00,
2013-07-12 19:45:00,67.6,66.4,30.04,North,355,0.0,0.0,96,0.00,,,0.02,Wunderground v.1.15,2013-07-12 23:45:00,
2013-07-12 19:50:00,67.5,66.3,30.04,North,355,0.0,0.0,96,0.00,,,0.02,Wunderground v.1.15,2013-07-12 23:50:00,
2013-07-12 19:55:00,67.4,66.2,30.04,North,355,0.0,0.0,96,0.00,,,0.02,Wunderground v.1.15,2013-07-12 23:55:00,
2013-07-12 20:01:00,67.3,66.1,30.05,North,355,0.0,0.0,96,0.00,,,0.02,Wunderground v.1.15,2013-07-13 00:01:00,
2013-07-12 20:06:00,67.2,66.3,30.05,North,355,0.0,1.0,97,0.00,,,0.02,Wunderground v.1.15,2013-07-13 00:06:00,
2013-07-12 20:11:00,67.1,66.2,30.05,North,355,0.0,0.0,97,0.00,,,0.02,Wunderground v.1.15,2013-07-13 00:11:00,
2013-07-12 20:16:00,66.9,65.7,30.05,North,355,0.0,0.0,96,0.00,,,0.02,Wunderground v.1.15,2013-07-13 00:16:00,
2013-07-12 20:22:00,66.8,65.9,30.05,North,355,0.0,0.0,97,0.00,,,0.02,Wunderground v.1.15,2013-07-13 00:22:00,
2013-07-12 20:27:00,66.7,65.8,30.05,North,355,0.0,0.0,97,0.00,,,0.02,Wunderground v.1.15,2013-07-13 00:27:00,
2013-07-12 20:32:00,66.6,65.4,30.05,North,355,0.0,0.0,96,0.00,,,0.02,Wunderground v.1.15,2013-07-13 00:32:00,
2013-07-12 20:37:00,66.5,65.3,30.05,North,355,0.0,0.0,96,0.00,,,0.02,Wunderground v.1.15,2013-07-13 00:37:00,
2013-07-12 20:43:00,66.5,65.6,30.05,North,355,0.0,0.0,97,0.00,,,0.02,Wunderground v.1.15,2013-07-13 00:43:00,
2013-07-12 20:48:00,66.4,65.2,30.04,North,355,0.0,0.0,96,0.00,,,0.02,Wunderground v.1.15,2013-07-13 00:48:00,
2013-07-12 20:54:00,66.3,65.4,30.04,North,355,0.0,0.0,97,0.00,,,0.02,Wunderground v.1.15,2013-07-13 00:54:00,
2013-07-12 20:59:00,66.3,65.4,30.04,North,355,0.0,0.0,97,0.00,,,0.02,Wunderground v.1.15,2013-07-13 00:59:00,
2013-07-12 21:04:00,66.3,65.4,30.05,North,355,0.0,0.0,97,0.00,,,0.02,Wunderground v.1.15,2013-07-13 01:04:00,
2013-07-12 21:09:00,66.2,65.3,30.04,North,355,0.0,0.0,97,0.00,,,0.02,Wunderground v.1.15,2013-07-13 01:09:00,
2013-07-12 21:15:00,66.1,65.2,30.04,North,355,0.0,0.0,97,0.00,,,0.02,Wunderground v.1.15,2013-07-13 01:15:00,
2013-07-12 21:20:00,66.0,65.1,30.04,North,355,0.0,0.0,97,0.00,,,0.02,Wunderground v.1.15,2013-07-13 01:20:00,
2013-07-12 21:25:00,66.0,65.1,30.04,North,355,0.0,0.0,97,0.00,,,0.02,Wunderground v.1.15,2013-07-13 01:25:00,
2013-07-12 21:31:00,65.9,65.0,30.05,North,355,0.0,0.0,97,0.00,,,0.02,Wunderground v.1.15,2013-07-13 01:31:00,
2013-07-12 21:36:00,65.9,65.3,30.05,North,355,0.0,0.0,98,0.00,,,0.02,Wunderground v.1.15,2013-07-13 01:36:00,
2013-07-12 21:41:00,65.9,65.3,30.05,North,355,0.0,0.0,98,0.00,,,0.02,Wunderground v.1.15,2013-07-13 01:41:00,
2013-07-12 21:47:00,65.9,65.3,30.05,North,355,0.0,0.0,98,0.00,,,0.02,Wunderground v.1.15,2013-07-13 01:47:00,
2013-07-12 21:52:00,65.9,65.6,30.05,North,355,0.0,0.0,99,0.00,,,0.02,Wunderground v.1.15,2013-07-13 01:52:00,
2013-07-12 21:57:00,65.9,65.6,30.06,North,355,0.0,0.0,99,0.00,,,0.02,Wunderground v.1.15,2013-07-13 01:57:00,
2013-07-12 22:02:00,65.8,65.2,30.06,North,355,1.0,1.0,98,0.00,,,0.02,Wunderground v.1.15,2013-07-13 02:02:00,
2013-07-12 22:08:00,65.6,65.0,30.06,North,355,0.0,1.0,98,0.00,,,0.02,Wunderground v.1.15,2013-07-13 02:08:00,
2013-07-12 22:13:00,65.6,65.0,30.06,North,355,0.0,0.0,98,0.00,,,0.02,Wunderground v.1.15,2013-07-13 02:13:00,
2013-07-12 22:18:00,65.6,65.0,30.06,North,355,0.0,0.0,98,0.00,,,0.02,Wunderground v.1.15,2013-07-13 02:18:00,
2013-07-12 22:23:00,65.5,64.9,30.06,North,355,0.0,0.0,98,0.00,,,0.02,Wunderground v.1.15,2013-07-13 02:23:00,
2013-07-12 22:28:00,65.5,64.9,30.07,North,355,0.0,0.0,98,0.00,,,0.02,Wunderground v.1.15,2013-07-13 02:28:00,
2013-07-12 22:34:00,65.4,65.1,30.07,North,355,0.0,0.0,99,0.00,,,0.02,Wunderground v.1.15,2013-07-13 02:34:00,
2013-07-12 22:39:00,65.4,65.1,30.07,North,355,0.0,0.0,99,0.00,,,0.02,Wunderground v.1.15,2013-07-13 02:39:00,
2013-07-12 22:44:00,65.3,65.3,30.07,North,355,0.0,0.0,100,0.00,,,0.02,Wunderground v.1.15,2013-07-13 02:44:00,
2013-07-12 22:49:00,65.3,65.3,30.08,North,355,0.0,0.0,100,0.00,,,0.02,Wunderground v.1.15,2013-07-13 02:49:00,
2013-07-12 22:54:00,65.2,65.2,30.08,North,355,0.0,0.0,100,0.00,,,0.02,Wunderground v.1.15,2013-07-13 02:54:00,
2013-07-12 22:59:00,65.2,65.2,30.08,North,355,0.0,0.0,100,0.00,,,0.02,Wunderground v.1.15,2013-07-13 02:59:00,
2013-07-12 23:04:00,65.2,65.2,30.09,North,355,0.0,0.0,100,0.00,,,0.02,Wunderground v.1.15,2013-07-13 03:04:00,
2013-07-12 23:10:00,65.2,65.2,30.08,North,355,0.0,0.0,100,0.00,,,0.02,Wunderground v.1.15,2013-07-13 03:10:00,
2013-07-12 23:15:00,65.2,65.2,30.08,North,355,0.0,0.0,100,0.00,,,0.02,Wunderground v.1.15,2013-07-13 03:15:00,
2013-07-12 23:20:00,65.2,65.2,30.08,North,355,0.0,0.0,100,0.00,,,0.02,Wunderground v.1.15,2013-07-13 03:20:00,
2013-07-12 23:25:00,65.2,65.2,30.08,North,355,0.0,1.0,100,0.00,,,0.02,Wunderground v.1.15,2013-07-13 03:25:00,
2013-07-12 23:30:00,65.2,65.2,30.08,North,355,0.0,0.0,100,0.00,,,0.02,Wunderground v.1.15,2013-07-13 03:30:00,
2013-07-12 23:35:00,65.2,64.9,30.08,North,355,0.0,2.0,99,0.00,,,0.02,Wunderground v.1.15,2013-07-13 03:35:00,
2013-07-12 23:41:00,65.3,64.7,30.08,North,355,0.0,0.0,98,0.00,,,0.02,Wunderground v.1.15,2013-07-13 03:41:00,
2013-07-12 23:46:00,65.4,64.8,30.08,North,355,0.0,0.0,98,0.00,,,0.02,Wunderground v.1.15,2013-07-13 03:46:00,
2013-07-12 23:51:00,65.4,64.5,30.08,North,355,0.0,1.0,97,0.00,,,0.02,Wunderground v.1.15,2013-07-13 03:51:00,
2013-07-12 23:56:00,65.4,64.5,30.08,North,355,0.0,1.0,97,0.00,,,0.02,Wunderground v.1.15,2013-07-13 03:56:00,